EW3967 Weather Reports


Display with metric or nautical units.
time (UTC)temp
F
wind
direction
speed
MPH
gust
MPH
rain 1hr
in
rain 24hr
in
rain mn
in
humidity
%
barometer
mb
20260904234559 95 127 5.0 12.0 0.00 0.00 0.00 42 1008.5
20260904233059 96 158 6.0 13.0 0.00 0.00 0.00 41 1008.5
20260904231558 96 161 7.0 14.0 0.00 0.00 0.00 41 1008.4
20260904230058 97 149 6.0 14.0 0.00 0.00 0.00 40 1008.4
20260904224558 99 164 7.0 13.0 0.00 0.00 0.00 38 1008.4
20260904223056 99 160 6.0 14.0 0.00 0.00 0.00 37 1008.3
20260904221601 100 154 6.0 14.0 0.00 0.00 0.00 38 1008.4
20260904220056 99 99 3.0 11.0 0.00 0.00 0.00 39 1008.5
20260904214554 99 154 3.0 13.0 0.00 0.00 0.00 38 1008.6
20260904213049 99 146 4.0 11.0 0.00 0.00 0.00 39 1008.7
20260904211545 99 120 6.0 19.0 0.00 0.00 0.00 40 1008.9
20260904210050 99 211 4.0 13.0 0.00 0.00 0.00 39 1009.1
20260904204540 97 124 6.0 13.0 0.00 0.00 0.00 40 1009.2
20260904203039 99 155 4.0 11.0 0.00 0.00 0.00 39 1009.3
20260904201538 99 200 4.0 14.0 0.00 0.00 0.00 40 1009.5
20260904200032 97 142 5.0 18.0 0.00 0.00 0.00 42 1009.6
20260904194529 97 141 8.0 16.0 0.00 0.00 0.00 42 1009.6
20260904193028 97 178 6.0 17.0 0.00 0.00 0.00 43 1009.9
20260904191523 97 173 8.0 14.0 0.00 0.00 0.00 42 1010.0
20260904190026 96 183 6.0 17.0 0.00 0.00 0.00 43 1010.2
20260904184517 96 204 7.0 15.0 0.00 0.00 0.00 43 1010.2
20260904183014 96 200 6.0 15.0 0.00 0.00 0.00 44 1010.5
20260904181510 95 196 5.0 20.0 0.00 0.00 0.00 45 1010.7
20260904180010 95 208 3.0 12.0 0.00 0.00 0.00 45 1010.8
20260904174506 95 243 5.0 14.0 0.00 0.00 0.00 44 1011.0
20260904173001 94 243 4.0 14.0 0.00 0.00 0.00 46 1011.3
20260904171603 93 167 4.0 10.0 0.00 0.00 0.00 47 1011.4
20260904170054 92 170 5.0 14.0 0.00 0.00 0.00 48 1011.5
20260904164552 91 163 5.0 15.0 0.00 0.00 0.00 50 1011.7
20260904163049 90 215 6.0 16.0 0.00 0.00 0.00 53 1011.7
20260904161543 89 144 6.0 14.0 0.00 0.00 0.00 57 1011.8
20260904160040 88 199 4.0 14.0 0.00 0.00 0.00 60 1011.8
20260904154539 87 164 5.0 12.0 0.00 0.00 0.00 61 1011.8
20260904153036 86 184 4.0 15.0 0.00 0.00 0.00 64 1011.8
20260904151530 85 184 8.0 13.0 0.00 0.00 0.00 65 1011.9
20260904150036 84 162 5.0 14.0 0.00 0.00 0.00 68 1011.9
20260904144526 83 203 3.0 16.0 0.00 0.00 0.00 70 1011.8
20260904143025 82 182 5.0 12.0 0.00 0.00 0.00 71 1011.8
20260904141521 81 240 4.0 11.0 0.00 0.00 0.00 73 1011.8
20260904140018 80 229 5.0 10.0 0.00 0.00 0.00 75 1011.8
20260904134517 79 236 5.0 13.0 0.00 0.00 0.00 77 1011.8
20260904133016 78 192 5.0 10.0 0.00 0.00 0.00 78 1011.8
20260904131513 77 160 3.0 7.0 0.00 0.00 0.00 79 1011.8
20260904130013 76 156 4.0 7.0 0.00 0.00 0.00 80 1011.4
20260904124512 75 110 3.0 8.0 0.00 0.00 0.00 80 1011.4
20260904123009 75 153 4.0 9.0 0.00 0.00 0.00 81 1011.2
20260904121507 74 150 2.0 8.0 0.00 0.00 0.00 81 1011.1
20260904120007 74 240 4.0 8.0 0.00 0.00 0.00 81 1011.0
20260904114506 74 181 4.0 8.0 0.00 0.00 0.00 81 1011.0
20260904113009 74 168 3.0 8.0 0.00 0.00 0.00 81 1010.9
20260904111505 74 169 3.0 6.0 0.00 0.00 0.00 82 1010.7
20260904110003 75 181 2.0 7.0 0.00 0.00 0.00 81 1010.9
20260904104501 75 150 2.0 5.0 0.00 0.00 0.00 81 1010.9
20260904103109 75 163 1.0 6.0 0.00 0.00 0.00 81 1010.9
20260904101559 75 181 4.0 9.0 0.00 0.00 0.00 80 1010.9
20260904100058 75 158 3.0 7.0 0.00 0.00 0.00 80 1011.0
20260904094554 76 175 2.0 7.0 0.00 0.00 0.00 80 1010.9
20260904093055 76 167 2.0 7.0 0.00 0.00 0.00 79 1010.7
20260904091606 76 197 4.0 10.0 0.00 0.00 0.00 79 1010.5
20260904090052 76 162 2.0 9.0 0.00 0.00 0.00 79 1010.5
20260904084551 76 160 1.0 7.0 0.00 0.00 0.00 80 1010.5
20260904083106 76 162 2.0 6.0 0.00 0.00 0.00 80 1010.4
20260904081550 76 146 3.0 5.0 0.00 0.00 0.00 79 1010.4
20260904080048 76 179 0.0 5.0 0.00 0.00 0.00 79 1010.5
20260904074603 76 154 2.0 6.0 0.00 0.00 0.00 78 1010.2
20260904073045 76 160 3.0 4.0 0.00 0.00 0.00 78 1010.4
20260904071544 77 178 2.0 6.0 0.00 0.00 0.00 77 1010.5
20260904070042 77 145 3.0 5.0 0.00 0.00 0.00 77 1010.6
20260904064539 77 162 2.0 5.0 0.00 0.00 0.00 76 1010.8
20260904063043 78 166 2.0 6.0 0.00 0.00 0.00 75 1010.7
20260904061539 78 191 3.0 7.0 0.00 0.00 0.00 74 1010.5
20260904060032 79 149 3.0 9.0 0.00 0.00 0.00 74 1010.6
20260904054535 79 180 3.0 8.0 0.00 0.00 0.00 73 1010.5
20260904053033 79 164 4.0 8.0 0.00 0.00 0.00 72 1010.5
20260904051528 80 168 2.0 7.0 0.00 0.00 0.00 71 1010.5
20260904050024 80 195 3.0 9.0 0.00 0.00 0.00 70 1010.4
20260904044524 80 163 4.0 8.0 0.00 0.00 0.00 69 1010.4
20260904043024 81 162 4.0 10.0 0.00 0.00 0.00 69 1010.5
20260904041533 81 154 4.0 9.0 0.00 0.00 0.00 68 1010.5
20260904040025 82 153 6.0 10.0 0.00 0.00 0.00 67 1010.5
20260904034523 82 217 5.0 10.0 0.00 0.00 0.00 66 1010.6
20260904033022 83 166 3.0 10.0 0.00 0.00 0.00 65 1010.6
20260904031521 83 162 6.0 15.0 0.00 0.00 0.00 65 1010.5
20260904030022 83 155 7.0 14.0 0.00 0.00 0.00 64 1010.5
20260904024521 84 153 6.0 12.0 0.00 0.00 0.00 63 1010.2
20260904023020 84 149 6.0 12.0 0.00 0.00 0.00 63 1010.1
20260904021532 85 165 4.0 13.0 0.00 0.00 0.00 62 1009.9
20260904020020 85 223 8.0 14.0 0.00 0.00 0.00 62 1009.7
20260904014518 85 143 6.0 11.0 0.00 0.00 0.00 62 1009.3
20260904013021 86 179 5.0 10.0 0.00 0.00 0.00 61 1009.1
20260904011517 86 174 7.0 14.0 0.00 0.00 0.00 60 1008.8
20260904010018 87 162 8.0 13.0 0.00 0.00 0.00 59 1008.8
20260904004517 88 139 6.0 15.0 0.00 0.00 0.00 58 1008.8
20260904003016 89 177 7.0 15.0 0.00 0.00 0.00 56 1008.6
20260904001517 90 142 10.0 17.0 0.00 0.00 0.00 54 1008.5
20260904000015 91 181 6.0 20.0 0.00 0.00 0.00 54 1008.4